Weather History for KGJT - October, 2012

Change the Weather History Date:

Thursday, October 25, 2012

  Actual Average Record
Temperature  
Mean Temperature 40 °F 49 °F  
Max Temperature 51 °F 62 °F 77 °F (2014)
Min Temperature 28 °F 36 °F 22 °F (1975)
Degree Days  
Heating Degree Days 25 16  
Month to date heating degree days 251 270  
Since 1 July heating degree days 289 344  
Cooling Degree Days 0 0  
Month to date cooling degree days 1 1  
Year to date cooling degree days 1515 1123  
Moisture  
Dew Point 27 °F    
Average Humidity 68    
Maximum Humidity 100    
Minimum Humidity 36    
Precipitation  
Precipitation T in 0.03 in 0.48 in (1897)
Month to date precipitation 0.29 0.87  
Year to date precipitation 3.31 7.91  
Snow  
Snow 0.00 in 0.10 in 0.30 in (1996)
Month to date snowfall 0.0 0.3  
Since 1 July snowfall 0.0 0.3  
Since 1 September snowfall 0.0 0.3  
Snow Depth 0.00 in    
Sea Level Pressure  
Sea Level Pressure 30.16 in    
Wind  
Wind Speed 6 mph (North)    
Max Wind Speed 33 mph    
Max Gust Speed 39 mph    
Visibility 10 miles    
Events      
T = Trace of Precipitation, MM = Missing Value Source: NWS Daily Summary

Daily Weather History Graph

Daily Weather History Graph

Search for Another Location

Airport or City:

Trip Planner

Search our weather history database for the weather conditions in past years. The results will help you decide how hot, cold, wet, or windy it might be!

Date:

Astronomy

Oct. 25, 2012 Rise Set
Actual Time 7:34 AM MDT 6:20 PM MDT
Civil Twilight 7:07 AM MDT 6:48 PM MDT
Nautical Twilight 6:36 AM MDT 7:19 PM MDT
Astronomical Twilight 6:04 AM MDT 7:50 PM MDT
Moon 4:07 PM MDT (10/25) 3:36 AM MDT (10/25)
Length of Visible Light 11h 40m
Length of Day
10h 46m
Waxing Gibbous, 85% of the Moon is Illuminated
Oct 25
Waxing Gibbous
Oct 29
Full
Nov 6
Last Quarter
Nov 13
New
Nov 20
First Quarter

Hourly Weather History & Observations

Time (MDT) Temp. Windchill Dew Point Humidity Pressure Visibility Wind Dir Wind Speed Gust Speed Precip Events Conditions
12:53 AM 37.0 °F - 30.0 °F 76% 30.01 in 10.0 mi Calm Calm - N/A   Overcast
1:53 AM 35.1 °F - 32.0 °F 89% 30.04 in 10.0 mi Calm Calm - N/A   Mostly Cloudy
2:53 AM 33.1 °F - 30.9 °F 92% 30.07 in 10.0 mi Calm Calm - N/A   Mostly Cloudy
3:53 AM 33.1 °F - 32.0 °F 96% 30.08 in 10.0 mi Calm Calm - N/A   Clear
4:53 AM 30.9 °F - 30.0 °F 96% 30.13 in 10.0 mi Calm Calm - N/A   Clear
5:53 AM 30.0 °F - 28.9 °F 96% 30.15 in 10.0 mi Calm Calm - N/A   Clear
6:53 AM 30.0 °F - 28.9 °F 96% 30.15 in 10.0 mi Calm Calm - N/A   Clear
7:53 AM 28.0 °F 24.2 °F 28.0 °F 100% 30.17 in 10.0 mi ESE 3.5 mph - N/A   Scattered Clouds
8:53 AM 30.9 °F 23.5 °F 28.9 °F 92% 30.18 in 10.0 mi ESE 8.1 mph - N/A   Scattered Clouds
9:53 AM 36.0 °F 31.1 °F 30.9 °F 82% 30.18 in 10.0 mi SE 5.8 mph - N/A   Scattered Clouds
11:53 AM 43.0 °F - 28.0 °F 56% 30.15 in 10.0 mi Calm Calm - N/A   Scattered Clouds
12:53 PM 46.0 °F 43.9 °F 30.9 °F 56% 30.10 in 10.0 mi Variable 4.6 mph - N/A   Mostly Cloudy
1:53 PM 46.9 °F - 28.9 °F 50% 30.09 in 10.0 mi Variable 3.5 mph - N/A   Mostly Cloudy
2:53 PM 46.9 °F - 27.0 °F 46% 30.07 in 10.0 mi NW 8.1 mph - N/A   Mostly Cloudy
3:53 PM 48.9 °F - 23.0 °F 36% 30.06 in 10.0 mi NNW 9.2 mph - N/A   Mostly Cloudy
4:35 PM 44.6 °F 35.7 °F 26.6 °F 49% 30.12 in 10.0 mi North 24.2 mph 35.7 mph N/A   Mostly Cloudy
4:53 PM 45.0 °F 38.2 °F 26.1 °F 48% 30.12 in 10.0 mi North 15.0 mph - N/A   Mostly Cloudy
5:53 PM 42.8 °F 33.3 °F 24.8 °F 49% 30.15 in 10.0 mi NNW 24.2 mph 32.2 mph N/A   Mostly Cloudy
6:53 PM 41.0 °F 34.3 °F 21.0 °F 45% 30.20 in 10.0 mi NNW 11.5 mph - N/A   Partly Cloudy
7:53 PM 39.9 °F 32.9 °F 26.1 °F 58% 30.25 in 10.0 mi WNW 11.5 mph - 0.00 in   Overcast
8:53 PM 39.0 °F - 26.1 °F 60% 30.27 in 10.0 mi Calm Calm - N/A   Overcast
9:53 PM 35.1 °F 32.2 °F 27.0 °F 72% 30.29 in 10.0 mi North 3.5 mph - N/A   Mostly Cloudy
10:53 PM 35.6 °F 29.2 °F 24.8 °F 65% 30.29 in 10.0 mi NNE 8.1 mph - N/A   Clear
11:53 PM 32.0 °F 26.4 °F 24.1 °F 73% 30.31 in 10.0 mi NE 5.8 mph - N/A   Scattered Clouds